,,,PA_Meas_PMT16A,,PR_Meas_QMR101_102,,RH_Meas_QMH101,,SR_Meas_QMS101,,TA_Meas_QMH101,,GenWind,,GenWind,
date,time,status,PA,status,PR,status,RH,status,SR,status,TA,status,DirAvg,status,SpdAvg,
2008-04-25, 00:00:05,VALID,1004.82,VALID,0,VALID,95.0253,VALID,0,VALID,23.4912,VALID,351,VALID,0.226172,
2008-04-25, 00:01:05,VALID,1004.81,VALID,0,VALID,95.0406,VALID,0,VALID,23.4718,VALID,351,VALID,0.210547,
2008-04-25, 00:02:05,VALID,1004.84,VALID,0,VALID,95.1169,VALID,0,VALID,23.4718,VALID,351,VALID,0.194922,
2008-04-25, 00:03:05,VALID,1004.81,VALID,0,VALID,95.2466,VALID,0,VALID,23.5125,VALID,351,VALID,0.323828,
2008-04-25, 00:04:05,VALID,1004.8,VALID,0,VALID,95.2237,VALID,0,VALID,23.4912,VALID,351,VALID,0.287891,
2008-04-25, 00:05:05,VALID,1004.81,VALID,0,VALID,95.2389,VALID,0,VALID,23.4912,VALID,351,VALID,0.214453,
2008-04-25, 00:06:05,VALID,1004.77,VALID,0,VALID,95.3229,VALID,0,VALID,23.4912,VALID,351,VALID,0.282422,
2008-04-25, 00:07:05,VALID,1004.78,VALID,0,VALID,95.2695,VALID,0,VALID,23.5125,VALID,351,VALID,0.2625,
2008-04-25, 00:08:05,VALID,1004.77,VALID,0,VALID,95.1016,VALID,0,VALID,23.4523,VALID,351,VALID,0.439844,
2008-04-25, 00:09:05,VALID,1004.74,VALID,0,VALID,95.0558,VALID,0,VALID,23.4523,VALID,351,VALID,0.311328,
2008-04-25, 00:10:05,VALID,1004.71,VALID,0,VALID,95.0635,VALID,0,VALID,23.4134,VALID,351,VALID,0.264453,
2008-04-25, 00:11:05,VALID,1004.68,VALID,0,VALID,95.3763,VALID,0,VALID,23.4328,VALID,351,VALID,0.20625,
2008-04-25, 00:12:05,VALID,1004.65,VALID,0,VALID,95.5288,VALID,0,VALID,23.4912,VALID,351,VALID,0.440234,
2008-04-25, 00:13:05,VALID,1004.64,VALID,0,VALID,95.5975,VALID,0,VALID,23.5302,VALID,334,VALID,0.0339844,
2008-04-25, 00:14:05,VALID,1004.62,VALID,0,VALID,95.5288,VALID,0,VALID,23.5691,VALID,334,VALID,0.0726563,
2008-04-25, 00:15:05,VALID,1004.61,VALID,0,VALID,95.4831,VALID,0,VALID,23.5691,VALID,334,VALID,0.0292969,
2008-04-25, 00:16:05,VALID,1004.61,VALID,0,VALID,95.4678,VALID,0,VALID,23.608,VALID,343,VALID,0.384375,
2008-04-25, 00:17:05,VALID,1004.63,VALID,0,VALID,95.3686,VALID,0,VALID,23.6469,VALID,343,VALID,0.0269531,
2008-04-25, 00:18:05,VALID,1004.65,VALID,0,VALID,95.3381,VALID,0,VALID,23.6469,VALID,343,VALID,0,
2008-04-25, 00:19:05,VALID,1004.64,VALID,0,VALID,95.2237,VALID,0,VALID,23.6469,VALID,343,VALID,0,
2008-04-25, 00:20:05,VALID,1004.65,VALID,0,VALID,95.2313,VALID,0,VALID,23.6859,VALID,343,VALID,0,
2008-04-25, 00:21:05,VALID,1004.68,VALID,0,VALID,95.1093,VALID,0,VALID,23.7053,VALID,315,VALID,0.366016,
2008-04-25, 00:22:05,VALID,1004.66,VALID,0,VALID,95.1016,VALID,0,VALID,23.7443,VALID,315,VALID,0.259375,
2008-04-25, 00:23:05,VALID,1004.68,VALID,0,VALID,95.1016,VALID,0,VALID,23.7637,VALID,293,VALID,0.254297,
2008-04-25, 00:24:05,VALID,1004.71,VALID,0,VALID,95.1245,VALID,0,VALID,23.8221,VALID,287,VALID,0.605859,
2008-04-25, 00:25:05,VALID,1004.71,VALID,0,VALID,94.888,VALID,0,VALID,23.9,VALID,288,VALID,0.464844,
2008-04-25, 00:26:05,VALID,1004.72,VALID,0,VALID,94.4608,VALID,0,VALID,23.9389,VALID,320,VALID,0.511719,
2008-04-25, 00:27:05,VALID,1004.69,VALID,0,VALID,93.8276,VALID,0,VALID,23.9,VALID,2,VALID,0.567969,
2008-04-25, 00:28:05,VALID,1004.68,VALID,0,VALID,93.5072,VALID,0,VALID,23.8027,VALID,3,VALID,0.698438,
2008-04-25, 00:29:05,VALID,1004.66,VALID,0,VALID,93.6674,VALID,0,VALID,23.7637,VALID,341,VALID,0.541797,
2008-04-25, 00:30:05,VALID,1004.65,VALID,0,VALID,93.8886,VALID,0,VALID,23.7655,VALID,346,VALID,0.553906,
2008-04-25, 00:31:05,VALID,1004.64,VALID,0,VALID,94.0336,VALID,0,VALID,23.7035,VALID,346,VALID,0.608203,
2008-04-25, 00:32:05,VALID,1004.63,VALID,0,VALID,94.1785,VALID,0,VALID,23.7053,VALID,347,VALID,0.548047,
2008-04-25, 00:33:05,VALID,1004.59,VALID,0,VALID,94.293,VALID,0,VALID,23.6859,VALID,349,VALID,0.513281,
2008-04-25, 00:34:05,VALID,1004.61,VALID,0,VALID,94.4379,VALID,0,VALID,23.7248,VALID,349,VALID,0.557422,
2008-04-25, 00:35:05,VALID,1004.62,VALID,0,VALID,94.3235,VALID,0,VALID,23.7035,VALID,350,VALID,0.482031,
2008-04-25, 00:36:05,VALID,1004.61,VALID,0,VALID,94.3921,VALID,0,VALID,23.7248,VALID,350,VALID,0.175391,
2008-04-25, 00:37:05,VALID,1004.56,VALID,0,VALID,94.3082,VALID,0,VALID,23.7248,VALID,350,VALID,0.260156,
2008-04-25, 00:38:05,VALID,1004.56,VALID,0,VALID,94.3311,VALID,0,VALID,23.7637,VALID,347,VALID,0.505859,
2008-04-25, 00:39:05,VALID,1004.57,VALID,0,VALID,94.2167,VALID,0,VALID,23.7832,VALID,347,VALID,0.462109,
2008-04-25, 00:40:05,VALID,1004.58,VALID,0,VALID,94.0794,VALID,0,VALID,23.8027,VALID,342,VALID,0.480469,
2008-04-25, 00:41:05,VALID,1004.59,VALID,0,VALID,93.8429,VALID,0,VALID,23.8027,VALID,342,VALID,0.442187,
2008-04-25, 00:42:05,VALID,1004.6,VALID,0,VALID,93.6445,VALID,0,VALID,23.7832,VALID,342,VALID,0.316016,
2008-04-25, 00:43:05,VALID,1004.59,VALID,0,VALID,93.5377,VALID,0,VALID,23.7443,VALID,342,VALID,0.317578,
2008-04-25, 00:44:05,VALID,1004.62,VALID,0,VALID,93.4233,VALID,0,VALID,23.7053,VALID,342,VALID,0.402734,
2008-04-25, 00:45:05,VALID,1004.6,VALID,0,VALID,93.4919,VALID,0,VALID,23.6257,VALID,343,VALID,0.390625,
2008-04-25, 00:46:05,VALID,1004.58,VALID,0,VALID,93.5453,VALID,0,VALID,23.5885,VALID,343,VALID,0.220703,
2008-04-25, 00:47:05,VALID,1004.58,VALID,0,VALID,93.6903,VALID,0,VALID,23.5478,VALID,343,VALID,0.260938,
2008-04-25, 00:48:05,VALID,1004.56,VALID,0,VALID,93.7742,VALID,0,VALID,23.5302,VALID,343,VALID,0.23125,
2008-04-25, 00:49:05,VALID,1004.57,VALID,0,VALID,93.881,VALID,0,VALID,23.4912,VALID,343,VALID,0.270703,
2008-04-25, 00:50:04,VALID,1004.59,VALID,0,VALID,94.0183,VALID,0,VALID,23.4912,VALID,343,VALID,0.199219,
2008-04-25, 00:51:04,VALID,1004.56,VALID,0,VALID,94.1251,VALID,0,VALID,23.4718,VALID,343,VALID,0,
2008-04-25, 00:52:04,VALID,1004.56,VALID,0,VALID,94.148,VALID,0,VALID,23.4718,VALID,343,VALID,0.109375,
2008-04-25, 00:53:04,VALID,1004.6,VALID,0,VALID,94.354,VALID,0,VALID,23.4505,VALID,343,VALID,0,
2008-04-25, 00:54:04,VALID,1004.56,VALID,0,VALID,94.2624,VALID,0,VALID,23.4523,VALID,343,VALID,0,
2008-04-25, 00:55:04,VALID,1004.58,VALID,0,VALID,94.2777,VALID,0,VALID,23.4541,VALID,343,VALID,0,
2008-04-25, 00:56:04,VALID,1004.58,VALID,0,VALID,94.2624,VALID,0,VALID,23.4328,VALID,343,VALID,0,
2008-04-25, 00:57:04,VALID,1004.57,VALID,0,VALID,94.293,VALID,0,VALID,23.3939,VALID,343,VALID,0,
2008-04-25, 00:58:04,VALID,1004.56,VALID,0,VALID,94.3769,VALID,0,VALID,23.3939,VALID,343,VALID,0,
2008-04-25, 00:59:04,VALID,1004.55,VALID,0,VALID,94.4455,VALID,0,VALID,23.3939,VALID,343,VALID,0.289453,
2008-04-25, 01:00:04,VALID,1004.54,VALID,0,VALID,94.4379,VALID,0,VALID,23.3744,VALID,343,VALID,0.401563,
2008-04-25, 01:01:04,VALID,1004.52,VALID,0,VALID,94.6363,VALID,0,VALID,23.3744,VALID,343,VALID,0.410937,
2008-04-25, 01:02:04,VALID,1004.5,VALID,0,VALID,95.0177,VALID,0,VALID,23.4151,VALID,295,VALID,0.66875,
2008-04-25, 01:03:04,VALID,1004.48,VALID,0,VALID,94.9872,VALID,0,VALID,23.493,VALID,283,VALID,0.514844,
2008-04-25, 01:04:04,VALID,1004.45,VALID,0,VALID,94.3998,VALID,0,VALID,23.4912,VALID,353,VALID,0.780859,
2008-04-25, 01:05:04,VALID,1004.44,VALID,0,VALID,94.1938,VALID,0,VALID,23.4718,VALID,357,VALID,0.709766,
2008-04-25, 01:06:04,VALID,1004.42,VALID,0,VALID,94.3006,VALID,0,VALID,23.4718,VALID,357,VALID,0.577734,
2008-04-25, 01:07:04,VALID,1004.37,VALID,0,VALID,94.2167,VALID,0,VALID,23.4541,VALID,339,VALID,0.496484,
2008-04-25, 01:08:04,VALID,1004.37,VALID,0,VALID,94.3158,VALID,0,VALID,23.4328,VALID,353,VALID,0.455859,
2008-04-25, 01:09:04,VALID,1004.35,VALID,0,VALID,94.3845,VALID,0,VALID,23.4328,VALID,353,VALID,0.547656,
2008-04-25, 01:10:04,VALID,1004.35,VALID,0,VALID,94.4227,VALID,0,VALID,23.4116,VALID,353,VALID,0.659766,
2008-04-25, 01:11:04,VALID,1004.34,VALID,0,VALID,94.6057,VALID,0,VALID,23.3921,VALID,353,VALID,0.598437,
2008-04-25, 01:12:04,VALID,1004.34,VALID,0,VALID,94.7125,VALID,0,VALID,23.4116,VALID,353,VALID,0.519922,
2008-04-25, 01:13:04,VALID,1004.36,VALID,0,VALID,94.8422,VALID,0,VALID,23.4311,VALID,358,VALID,0.545703,
2008-04-25, 01:14:04,VALID,1004.32,VALID,0,VALID,94.8041,VALID,0,VALID,23.47,VALID,347,VALID,0.448047,
2008-04-25, 01:15:04,VALID,1004.32,VALID,0,VALID,94.6286,VALID,0,VALID,23.4912,VALID,347,VALID,0.425391,
2008-04-25, 01:16:04,VALID,1004.32,VALID,0,VALID,94.6591,VALID,0,VALID,23.5089,VALID,348,VALID,0.630859,
2008-04-25, 01:17:04,VALID,1004.28,VALID,0,VALID,94.6668,VALID,0,VALID,23.5302,VALID,350,VALID,0.046875,
2008-04-25, 01:18:04,VALID,1004.28,VALID,0,VALID,94.6057,VALID,0,VALID,23.5284,VALID,350,VALID,0,
2008-04-25, 01:19:04,VALID,1004.25,VALID,0,VALID,94.5447,VALID,0,VALID,23.5691,VALID,348,VALID,0.592188,
2008-04-25, 01:20:04,VALID,1004.24,VALID,0,VALID,94.5676,VALID,0,VALID,23.5868,VALID,347,VALID,0.405078,
2008-04-25, 01:21:04,VALID,1004.23,VALID,0,VALID,94.4837,VALID,0,VALID,23.6275,VALID,350,VALID,0.528125,
2008-04-25, 01:22:04,VALID,1004.24,VALID,0,VALID,94.2777,VALID,0.100563,VALID,23.6452,VALID,351,VALID,0.358984,
2008-04-25, 01:23:04,VALID,1004.24,VALID,0,VALID,94.2243,VALID,0,VALID,23.6664,VALID,351,VALID,0.392578,
2008-04-25, 01:24:04,VALID,1004.23,VALID,0,VALID,94.1328,VALID,0,VALID,23.6275,VALID,351,VALID,0.326953,
2008-04-25, 01:25:04,VALID,1004.24,VALID,0,VALID,94.1099,VALID,0,VALID,23.608,VALID,350,VALID,0.4,
2008-04-25, 01:26:04,VALID,1004.25,VALID,0,VALID,94.2167,VALID,0,VALID,23.5868,VALID,351,VALID,0.448438,
2008-04-25, 01:27:04,VALID,1004.25,VALID,0,VALID,94.2853,VALID,0,VALID,23.6062,VALID,342,VALID,0.249219,
2008-04-25, 01:28:04,VALID,1004.23,VALID,0,VALID,94.3464,VALID,0,VALID,23.6275,VALID,342,VALID,0.211328,
2008-04-25, 01:29:04,VALID,1004.23,VALID,0,VALID,94.3235,VALID,0,VALID,23.6452,VALID,348,VALID,0.407813,
2008-04-25, 01:30:04,VALID,1004.19,VALID,0,VALID,94.1785,VALID,0,VALID,23.6841,VALID,348,VALID,0.0796875,
2008-04-25, 01:31:04,VALID,1004.18,VALID,0,VALID,94.1251,VALID,0,VALID,23.7035,VALID,348,VALID,0,
2008-04-25, 01:32:04,VALID,1004.18,VALID,0,VALID,94.0717,VALID,0,VALID,23.7425,VALID,342,VALID,0.2875,
2008-04-25, 01:33:04,VALID,1004.15,VALID,0,VALID,93.9039,VALID,0,VALID,23.7832,VALID,342,VALID,0.502344,
2008-04-25, 01:34:04,VALID,1004.14,VALID,0,VALID,93.7971,VALID,0,VALID,23.8203,VALID,350,VALID,0.426562,
2008-04-25, 01:35:04,VALID,1004.16,VALID,0,VALID,93.4996,VALID,0,VALID,23.9195,VALID,356,VALID,0.500781,
2008-04-25, 01:36:04,VALID,1004.14,VALID,0,VALID,93.2173,VALID,0,VALID,23.9779,VALID,355,VALID,0.566797,
2008-04-25, 01:37:04,VALID,1004.13,VALID,0,VALID,92.9732,VALID,0,VALID,24.0363,VALID,347,VALID,0.372656,
2008-04-25, 01:38:04,VALID,1004.13,VALID,0,VALID,92.8358,VALID,0,VALID,24.0734,VALID,347,VALID,0,
2008-04-25, 01:39:04,VALID,1004.08,VALID,0,VALID,92.7214,VALID,0,VALID,24.0929,VALID,347,VALID,0.230078,
2008-04-25, 01:40:04,VALID,1004.06,VALID,0,VALID,92.5002,VALID,0,VALID,24.1123,VALID,349,VALID,0.435547,
2008-04-25, 01:41:04,VALID,1004.05,VALID,0,VALID,92.3323,VALID,0,VALID,24.1726,VALID,349,VALID,0.557031,
2008-04-25, 01:42:04,VALID,1004.05,VALID,0,VALID,92.1492,VALID,0,VALID,24.2097,VALID,350,VALID,0.0046875,
2008-04-25, 01:43:04,VALID,1004.05,VALID,0,VALID,91.9356,VALID,0,VALID,24.2681,VALID,357,VALID,0.959375,
2008-04-25, 01:44:04,VALID,1004.04,VALID,0,VALID,91.6991,VALID,0,VALID,24.3478,VALID,348,VALID,0.553516,
2008-04-25, 01:45:04,VALID,1004.02,VALID,0,VALID,91.3711,VALID,0,VALID,24.3849,VALID,358,VALID,0.933984,
2008-04-25, 01:46:04,VALID,1004,VALID,0,VALID,91.2262,VALID,0.100563,VALID,24.4646,VALID,4,VALID,0.512891,
2008-04-25, 01:47:04,VALID,1003.98,VALID,0,VALID,90.9439,VALID,0,VALID,24.5035,VALID,342,VALID,0.869141,
2008-04-25, 01:48:04,VALID,1003.99,VALID,0,VALID,90.7455,VALID,0,VALID,24.562,VALID,354,VALID,0.729297,
2008-04-25, 01:49:04,VALID,1003.93,VALID,0,VALID,90.5319,VALID,0,VALID,24.6009,VALID,351,VALID,0.528125,
2008-04-25, 01:50:04,VALID,1003.89,VALID,0,VALID,90.4251,VALID,0,VALID,24.6009,VALID,356,VALID,0.732813,
2008-04-25, 01:51:04,VALID,1003.93,VALID,0,VALID,90.1963,VALID,0,VALID,24.638,VALID,351,VALID,1.28828,
2008-04-25, 01:52:04,VALID,1003.92,VALID,0,VALID,90.12,VALID,0,VALID,24.7177,VALID,348,VALID,0.751172,
2008-04-25, 01:53:04,VALID,1003.88,VALID,0,VALID,89.8987,VALID,0,VALID,24.7567,VALID,347,VALID,0.474609,
2008-04-25, 01:54:04,VALID,1003.88,VALID,0,VALID,89.6699,VALID,0,VALID,24.7761,VALID,328,VALID,0.657812,
2008-04-25, 01:55:04,VALID,1003.88,VALID,0,VALID,89.4028,VALID,0,VALID,24.8151,VALID,350,VALID,1.04688,
2008-04-25, 01:56:04,VALID,1003.87,VALID,0,VALID,89.2121,VALID,0,VALID,24.854,VALID,356,VALID,0.876172,
2008-04-25, 01:57:04,VALID,1003.89,VALID,0,VALID,89.0214,VALID,0,VALID,24.8735,VALID,335,VALID,0.817187,
2008-04-25, 01:58:04,VALID,1003.93,VALID,0,VALID,88.8841,VALID,0,VALID,24.9106,VALID,342,VALID,0.746875,
2008-04-25, 01:59:04,VALID,1003.91,VALID,0,VALID,88.8231,VALID,0,VALID,24.9125,VALID,351,VALID,0.898438,
2008-04-25, 02:00:04,VALID,1003.94,VALID,0,VALID,88.6934,VALID,0,VALID,24.9319,VALID,3,VALID,0.8875,
2008-04-25, 02:01:04,VALID,1003.96,VALID,0,VALID,88.6857,VALID,0,VALID,24.9319,VALID,343,VALID,0.574219,
2008-04-25, 02:02:04,VALID,1003.98,VALID,0,VALID,88.7162,VALID,0,VALID,24.9533,VALID,348,VALID,0.702734,
2008-04-25, 02:03:04,VALID,1003.98,VALID,0,VALID,88.6781,VALID,0,VALID,24.9125,VALID,352,VALID,0.923828,
2008-04-25, 02:04:04,VALID,1003.98,VALID,0,VALID,88.7544,VALID,0,VALID,24.9125,VALID,350,VALID,0.902734,
2008-04-25, 02:05:04,VALID,1003.98,VALID,0,VALID,88.8383,VALID,0,VALID,24.9125,VALID,346,VALID,0.402734,
2008-04-25, 02:06:04,VALID,1003.95,VALID,0,VALID,88.9299,VALID,0,VALID,24.893,VALID,348,VALID,0.569141,
2008-04-25, 02:07:04,VALID,1003.95,VALID,0,VALID,89.0138,VALID,0,VALID,24.8522,VALID,360,VALID,0.257031,
2008-04-25, 02:08:04,VALID,1003.97,VALID,0,VALID,89.0977,VALID,0,VALID,24.8949,VALID,360,VALID,0.225,
2008-04-25, 02:09:04,VALID,1003.98,VALID,0,VALID,89.2426,VALID,0,VALID,24.8346,VALID,317,VALID,0.246875,
2008-04-25, 02:10:04,VALID,1003.99,VALID,0,VALID,89.2884,VALID,0,VALID,24.8151,VALID,321,VALID,0.379297,
2008-04-25, 02:11:04,VALID,1004.01,VALID,0,VALID,89.4028,VALID,0,VALID,24.8151,VALID,303,VALID,0.437109,
2008-04-25, 02:12:04,VALID,1004.01,VALID,0,VALID,89.4028,VALID,0,VALID,24.8151,VALID,303,VALID,0.0699219,
2008-04-25, 02:13:04,VALID,1003.99,VALID,0,VALID,89.4639,VALID,0,VALID,24.8151,VALID,291,VALID,0.510547,
2008-04-25, 02:14:04,VALID,1003.99,VALID,0,VALID,89.4486,VALID,0,VALID,24.7956,VALID,300,VALID,0.169922,
2008-04-25, 02:15:04,VALID,1003.95,VALID,0,VALID,89.4486,VALID,0,VALID,24.7975,VALID,300,VALID,0.2,
2008-04-25, 02:16:04,VALID,1003.96,VALID,0,VALID,89.5402,VALID,0,VALID,24.7761,VALID,300,VALID,0.196484,
2008-04-25, 02:17:04,VALID,1003.92,VALID,0,VALID,89.6775,VALID,0,VALID,24.7567,VALID,300,VALID,0,
2008-04-25, 02:18:04,VALID,1003.92,VALID,0,VALID,89.6927,VALID,0,VALID,24.7586,VALID,300,VALID,0.341406,
2008-04-25, 02:19:04,VALID,1003.91,VALID,0,VALID,89.7614,VALID,0,VALID,24.7177,VALID,300,VALID,0,
2008-04-25, 02:20:04,VALID,1003.89,VALID,0,VALID,89.8835,VALID,0,VALID,24.6983,VALID,341,VALID,0.162891,
2008-04-25, 02:21:04,VALID,1003.91,VALID,0,VALID,89.9369,VALID,0,VALID,24.6788,VALID,343,VALID,0.00351562,
2008-04-25, 02:22:04,VALID,1003.89,VALID,0,VALID,90.0666,VALID,0,VALID,24.6593,VALID,264,VALID,0.355859,
2008-04-25, 02:23:04,VALID,1003.87,VALID,0,VALID,90.1123,VALID,0,VALID,24.6593,VALID,273,VALID,0.601953,
2008-04-25, 02:24:04,VALID,1003.85,VALID,0,VALID,90.1657,VALID,0,VALID,24.6398,VALID,281,VALID,0.105469,
2008-04-25, 02:25:04,VALID,1003.83,VALID,0,VALID,90.2268,VALID,0,VALID,24.6612,VALID,343,VALID,0.323047,
2008-04-25, 02:26:04,VALID,1003.83,VALID,0,VALID,90.3259,VALID,0,VALID,24.6417,VALID,263,VALID,0.308203,
2008-04-25, 02:27:04,VALID,1003.83,VALID,0,VALID,90.4022,VALID,0,VALID,24.6204,VALID,263,VALID,0.0886719,
2008-04-25, 02:28:04,VALID,1003.83,VALID,0,VALID,90.4175,VALID,0,VALID,24.6009,VALID,287,VALID,0.200391,
2008-04-25, 02:29:04,VALID,1003.83,VALID,0,VALID,90.5014,VALID,0,VALID,24.6009,VALID,286,VALID,0.585547,
2008-04-25, 02:30:04,VALID,1003.83,VALID,0,VALID,90.509,VALID,0,VALID,24.6417,VALID,340,VALID,0.0855469,
2008-04-25, 02:31:04,VALID,1003.8,VALID,0,VALID,90.5472,VALID,0,VALID,24.6009,VALID,340,VALID,0.00117188,
2008-04-25, 02:32:04,VALID,1003.79,VALID,0,VALID,90.6082,VALID,0,VALID,24.6009,VALID,291,VALID,0.617969,
2008-04-25, 02:33:04,VALID,1003.77,VALID,0,VALID,90.593,VALID,0,VALID,24.6204,VALID,291,VALID,0.554297,
2008-04-25, 02:34:04,VALID,1003.74,VALID,0,VALID,90.5624,VALID,0,VALID,24.6204,VALID,299,VALID,0.205078,
2008-04-25, 02:35:04,VALID,1003.68,VALID,0,VALID,90.5167,VALID,0,VALID,24.6009,VALID,335,VALID,0.361719,
2008-04-25, 02:36:04,VALID,1003.66,VALID,0,VALID,90.5624,VALID,0,VALID,24.6417,VALID,346,VALID,0.658984,
2008-04-25, 02:37:04,VALID,1003.66,VALID,0,VALID,90.509,VALID,0,VALID,24.6398,VALID,1,VALID,0.29375,
2008-04-25, 02:38:04,VALID,1003.63,VALID,0,VALID,90.4938,VALID,0,VALID,24.6593,VALID,4,VALID,0.819922,
2008-04-25, 02:39:04,VALID,1003.63,VALID,0,VALID,90.5014,VALID,0,VALID,24.6593,VALID,346,VALID,0.717578,
2008-04-25, 02:40:04,VALID,1003.62,VALID,0,VALID,90.4709,VALID,0,VALID,24.6593,VALID,350,VALID,0.633203,
2008-04-25, 02:41:04,VALID,1003.65,VALID,0,VALID,90.593,VALID,0,VALID,24.6204,VALID,351,VALID,0.660156,
2008-04-25, 02:42:04,VALID,1003.65,VALID,0,VALID,90.7455,VALID,0,VALID,24.6009,VALID,356,VALID,0.618359,
2008-04-25, 02:43:04,VALID,1003.65,VALID,0,VALID,90.8676,VALID,0,VALID,24.562,VALID,355,VALID,0.701563,
2008-04-25, 02:44:04,VALID,1003.61,VALID,0,VALID,91.1193,VALID,0,VALID,24.523,VALID,349,VALID,0.651172,
2008-04-25, 02:45:04,VALID,1003.6,VALID,0,VALID,91.2719,VALID,0,VALID,24.5035,VALID,352,VALID,0.386719,
2008-04-25, 02:46:04,VALID,1003.61,VALID,0,VALID,91.2948,VALID,0,VALID,24.4628,VALID,344,VALID,0.605078,
2008-04-25, 02:47:04,VALID,1003.59,VALID,0,VALID,91.4169,VALID,0,VALID,24.4859,VALID,357,VALID,0.605469,
2008-04-25, 02:48:04,VALID,1003.6,VALID,0,VALID,91.5695,VALID,0,VALID,24.4665,VALID,350,VALID,0.526953,
2008-04-25, 02:49:04,VALID,1003.54,VALID,0,VALID,91.6534,VALID,0,VALID,24.4257,VALID,352,VALID,0.151172,
2008-04-25, 02:50:04,VALID,1003.54,VALID,0,VALID,91.7602,VALID,0,VALID,24.4062,VALID,352,VALID,0.260156,
2008-04-25, 02:51:04,VALID,1003.5,VALID,0,VALID,91.8288,VALID,0,VALID,24.4062,VALID,352,VALID,0.103125,
2008-04-25, 02:52:04,VALID,1003.51,VALID,0,VALID,91.8746,VALID,0,VALID,24.408,VALID,352,VALID,0.238672,
2008-04-25, 02:53:04,VALID,1003.52,VALID,0,VALID,91.928,VALID,0,VALID,24.3673,VALID,352,VALID,0.00234375,
2008-04-25, 02:54:04,VALID,1003.51,VALID,0,VALID,91.9967,VALID,0,VALID,24.3673,VALID,352,VALID,0.43125,
2008-04-25, 02:55:04,VALID,1003.5,VALID,0,VALID,91.9509,VALID,0,VALID,24.3478,VALID,352,VALID,0.615234,
2008-04-25, 02:56:04,VALID,1003.48,VALID,0,VALID,91.9814,VALID,0,VALID,24.3107,VALID,352,VALID,0.691016,
2008-04-25, 02:57:04,VALID,1003.49,VALID,0,VALID,92.1492,VALID,0,VALID,24.231,VALID,353,VALID,0.74375,
2008-04-25, 02:58:04,VALID,1003.51,VALID,0,VALID,92.3857,VALID,0,VALID,24.1726,VALID,354,VALID,0.794922,
2008-04-25, 02:59:04,VALID,1003.5,VALID,0,VALID,92.6146,VALID,0,VALID,24.1336,VALID,355,VALID,0.812891,
2008-04-25, 03:00:04,VALID,1003.51,VALID,0,VALID,92.7824,VALID,0,VALID,24.116,VALID,356,VALID,0.890234,
2008-04-25, 03:01:04,VALID,1003.54,VALID,0,VALID,93.0495,VALID,0,VALID,24.0576,VALID,357,VALID,0.979297,
2008-04-25, 03:02:04,VALID,1003.56,VALID,0,VALID,93.2249,VALID,0,VALID,23.9973,VALID,357,VALID,0.803516,
2008-04-25, 03:03:04,VALID,1003.53,VALID,0,VALID,93.4004,VALID,0,VALID,23.9992,VALID,356,VALID,0.800781,
2008-04-25, 03:04:04,VALID,1003.54,VALID,0,VALID,93.5224,VALID,0,VALID,23.9389,VALID,356,VALID,0.842969,
2008-04-25, 03:05:04,VALID,1003.54,VALID,0,VALID,93.4919,VALID,0,VALID,23.9584,VALID,357,VALID,0.846875,
2008-04-25, 03:06:04,VALID,1003.52,VALID,0,VALID,93.5835,VALID,0,VALID,23.9584,VALID,355,VALID,0.751172,
2008-04-25, 03:07:04,VALID,1003.55,VALID,0,VALID,93.6598,VALID,0,VALID,23.9584,VALID,355,VALID,0.689844,
2008-04-25, 03:08:04,VALID,1003.54,VALID,0,VALID,93.7589,VALID,0,VALID,23.9973,VALID,355,VALID,0.967969,
2008-04-25, 03:09:04,VALID,1003.56,VALID,0,VALID,93.6903,VALID,0,VALID,24.0363,VALID,352,VALID,0.552734,
2008-04-25, 03:10:04,VALID,1003.54,VALID,0,VALID,93.5224,VALID,0,VALID,24.0947,VALID,352,VALID,0.651172,
2008-04-25, 03:11:04,VALID,1003.54,VALID,0,VALID,93.4385,VALID,0,VALID,24.1336,VALID,344,VALID,0.974219,
2008-04-25, 03:12:04,VALID,1003.54,VALID,0,VALID,93.1944,VALID,0,VALID,24.192,VALID,347,VALID,0.764453,
2008-04-25, 03:13:04,VALID,1003.54,VALID,0,VALID,92.9961,VALID,0,VALID,24.2504,VALID,355,VALID,0.701953,
2008-04-25, 03:14:04,VALID,1003.51,VALID,0,VALID,92.9579,VALID,0,VALID,24.2912,VALID,354,VALID,1.28516,
2008-04-25, 03:15:04,VALID,1003.51,VALID,0,VALID,92.6909,VALID,0,VALID,24.3478,VALID,331,VALID,0.570313,
2008-04-25, 03:16:04,VALID,1003.51,VALID,0,VALID,92.4925,VALID,0,VALID,24.3867,VALID,339,VALID,0.615234,
2008-04-25, 03:17:04,VALID,1003.51,VALID,0,VALID,92.2866,VALID,0,VALID,24.4275,VALID,339,VALID,0.353516,
2008-04-25, 03:18:04,VALID,1003.5,VALID,0,VALID,92.1874,VALID,0,VALID,24.4257,VALID,341,VALID,0.523438,
2008-04-25, 03:19:04,VALID,1003.52,VALID,0,VALID,92.0577,VALID,0,VALID,24.4043,VALID,352,VALID,0.591016,
2008-04-25, 03:20:04,VALID,1003.54,VALID,0,VALID,91.9738,VALID,0,VALID,24.4257,VALID,357,VALID,0.460547,
2008-04-25, 03:21:04,VALID,1003.56,VALID,0,VALID,92.0272,VALID,0,VALID,24.447,VALID,356,VALID,0.410937,
2008-04-25, 03:22:04,VALID,1003.55,VALID,0,VALID,92.0653,VALID,0,VALID,24.4257,VALID,342,VALID,0.486719,
2008-04-25, 03:23:04,VALID,1003.56,VALID,0,VALID,92.1416,VALID,0,VALID,24.447,VALID,345,VALID,0.654688,
2008-04-25, 03:24:04,VALID,1003.61,VALID,0,VALID,91.9509,VALID,0,VALID,24.4043,VALID,346,VALID,0.201562,
2008-04-25, 03:25:04,VALID,1003.62,VALID,0,VALID,92.2637,VALID,0,VALID,24.4062,VALID,346,VALID,0.370313,
2008-04-25, 03:26:04,VALID,1003.62,VALID,0,VALID,92.1798,VALID,0,VALID,24.4257,VALID,346,VALID,0.235938,
2008-04-25, 03:27:04,VALID,1003.61,VALID,0,VALID,92.1492,VALID,0,VALID,24.4062,VALID,346,VALID,0.162109,
2008-04-25, 03:28:04,VALID,1003.57,VALID,0,VALID,92.3018,VALID,0,VALID,24.3673,VALID,345,VALID,0.458984,
2008-04-25, 03:29:04,VALID,1003.61,VALID,0,VALID,92.3781,VALID,0,VALID,24.3691,VALID,345,VALID,0.335938,
2008-04-25, 03:30:04,VALID,1003.57,VALID,0,VALID,92.3247,VALID,0,VALID,24.3283,VALID,345,VALID,0.171875,
2008-04-25, 03:31:04,VALID,1003.58,VALID,0,VALID,92.4468,VALID,0,VALID,24.2894,VALID,345,VALID,0.183984,
2008-04-25, 03:32:04,VALID,1003.56,VALID,0,VALID,92.5536,VALID,0,VALID,24.2504,VALID,345,VALID,0.252734,
2008-04-25, 03:33:04,VALID,1003.59,VALID,0,VALID,92.7138,VALID,0,VALID,24.2504,VALID,345,VALID,0.217187,
2008-04-25, 03:34:04,VALID,1003.61,VALID,0,VALID,92.8664,VALID,0,VALID,24.231,VALID,345,VALID,0.299219,
2008-04-25, 03:35:04,VALID,1003.6,VALID,0,VALID,93.0189,VALID,0,VALID,24.2115,VALID,345,VALID,0.125781,
2008-04-25, 03:36:04,VALID,1003.59,VALID,0,VALID,93.2478,VALID,0,VALID,24.2115,VALID,345,VALID,0,
2008-04-25, 03:37:04,VALID,1003.6,VALID,0,VALID,93.347,VALID,0,VALID,24.2115,VALID,345,VALID,0.137891,
2008-04-25, 03:38:04,VALID,1003.61,VALID,0,VALID,93.347,VALID,0,VALID,24.2115,VALID,345,VALID,0.0152344,
2008-04-25, 03:39:04,VALID,1003.58,VALID,0,VALID,93.3699,VALID,0,VALID,24.192,VALID,345,VALID,0.266406,
2008-04-25, 03:40:04,VALID,1003.58,VALID,0,VALID,93.3928,VALID,0,VALID,24.192,VALID,345,VALID,0.356641,
2008-04-25, 03:41:04,VALID,1003.6,VALID,0,VALID,93.6369,VALID,0,VALID,24.231,VALID,346,VALID,0.405469,
2008-04-25, 03:42:04,VALID,1003.59,VALID,0,VALID,93.5148,VALID,0,VALID,24.2504,VALID,346,VALID,0.253125,
2008-04-25, 03:43:04,VALID,1003.57,VALID,0,VALID,93.3622,VALID,0,VALID,24.2699,VALID,346,VALID,0.200781,
2008-04-25, 03:44:04,VALID,1003.55,VALID,0,VALID,93.5301,VALID,0,VALID,24.2912,VALID,346,VALID,0.310156,
2008-04-25, 03:45:04,VALID,1003.58,VALID,0,VALID,93.347,VALID,0,VALID,24.2894,VALID,346,VALID,0.345313,